Regional Weather Roundup
Issued by NWS

Home | Current Version | Previous Version | Text Only | Print | Product List | Glossary Off
Versions: 1 2 3 4 5 6 7 8 9 10 11 12 13 14 15 16 17 18 19 20 21 22 23 24 25 26 27 28 29 30 31 32 33 34 35 36 37 38 39 40 41 42 43 44 45 46 47 48 49 50

000
ASUS43 KBIS 252310
RWRND

NORTH DAKOTA REGIONAL WEATHER ROUNDUP
NATIONAL WEATHER SERVICE BISMARCK ND
500 PM CST TUE NOV 25 2014

NOTE: "FAIR" INDICATES FEW OR NO CLOUDS BELOW 12,000 FEET WITH NO
SIGNIFICANT WEATHER AND/OR OBSTRUCTIONS TO VISIBILITY.


NDZ001>003-009>011-017-260000-
NORTHWEST NORTH DAKOTA

CITY           SKY/WX    TMP DP  RH WIND       PRES   REMARKS
WILLISTON      CLOUDY    27  21  78 N21G29    29.87R WCI  13
MINOT          SNOW      22  19  89 NE17G28   29.84R VSB 1/2 WCI   8
MINOT AFB      LGT SNOW  21  19  93 NE21      29.85R FOG     WCI   6
$$

NDZ018>021-031>035-040>046-260000-
SOUTHWEST NORTH DAKOTA

CITY           SKY/WX    TMP DP  RH WIND       PRES   REMARKS
BISMARCK       CLOUDY    33  32  96 SW5       29.71S
DICKINSON      FLURRIES  34  28  79 NW22      29.71R
GARRISON         N/A     30  30 100 NE6       29.72R
HETTINGER ARPT CLOUDY    35  28  75 NW24G35   29.75R
$$

NDZ004>008-012>016-024-026-027-054-260000-
NORTHEAST NORTH DAKOTA

CITY           SKY/WX    TMP DP  RH WIND       PRES   REMARKS
GRAND FORKS    CLOUDY    20  14  77 NE12      29.96R WCI   8
GRND FRKS AFB  CLOUDY    19  15  84 NE10      29.96R WCI   7
DEVILS LAKE    CLOUDY    18   9  68 E14       29.87R WCI   4
$$

NDZ022-023-025-028>030-036>039-047>053-260000-
SOUTHEAST NORTH DAKOTA

CITY           SKY/WX    TMP DP  RH WIND       PRES   REMARKS
FARGO          CLOUDY    26  17  68 SE12      29.91S WCI  16
JAMESTOWN      LGT SNOW  28  26  92 SE10      29.80R VSB 3/4 WCI  19
$$




USA.gov is the U.S. government's official web portal to all federal, state and local government web resources and services.